COSMOS 1275 DEB, 12712

Orbit data source: Space-Track

COSMOS 1275 DEB, 12712 is space debris in LEO originally from a launch on Thu, 04 Jun 1981 UTC launched from the Plesetsk Missile And Space Complex (PKMTR). Debris objects in space refer to the collection of defunct objects orbiting the Earth. Examples of debris include non-operational satellites, rocket bodies, and fragments generated from explosions, collisions, or faulty payload assembly.

Loading next visibility...
Identifier
12712, 1981-053BG
Orbit
LEO
Country
Flag of CISCIS
Related business
Manufacturer
Unknown
Mission
Spacecraft
Bus & Motor
Unknown
Mass
Unknown
Launch date (UTC)
1981-06-04 (45 years ago)
Launch vehicle
Unknown
Launch site
Plesetsk Missile And Space Complex (PKMTR)
Object type
Payload
Rocket body
Debris
Shape & HBR
Unknown shape, 0.1 m
Radar Cross Section
Small (<0.1 m²)

Expand to show TLE details & history
Last TLE update: 1 day ago

TLE from 1 day ago
0 COSMOS 1275 DEB
1 12712U 81053BG  26071.34873745  .00001903  00000-0  15207-2 0  9997
2 12712  82.9852  29.7147 0071807  12.9624 151.2262 13.89236508238003
Epoch: 2026-03-12T08:22Z
TLE epoch observation values (Epoch: 2026-03-12T08:22:10.915Z)
Latitude
15.27649°
Longitude
-87.74662°
Altitude
979.638 km
Speed
7.34 km/s
True Right ascension
13h 51m 11s
True Declination
15° 11' 31"
Sunlit
Object was in full shadow at epoch
Visualization orbit readout
Latitude
Unknown
Longitude
Unknown
Altitude
Unknown
Speed
Unknown
Apparent Right ascension
Unknown
Apparent Declination
Unknown
Sunlit
N/A
Visualization observer readout
Local Sidereal Time
15:54:57
Azimuth
Unknown
Elevation
Unknown
Doppler factor
Unknown
Orbital elements
Apogee altitude
980.901 km
Perigee altitude
875.969 km
Semi-major axis
7,306.572 km
Eccentricity
0.00718
Inclination
82.9852°
RAAN
29.7147°
Arg. of periapsis
12.9624°
True anomaly
151.61918°
Mean anomaly
151.2262°
Eccentric anomaly
151.423°
Mean motion
3.47514 °/min
Orbital period
103.59 mins
BSTAR
0.0015207
Loading maneuver chart data...
Computing Atmospheric mass density...
Loading historical data...
Loading historical data...
Loading historical data...
Loading historical data...
Loading historical data...
Loading historical data...
Loading historical data...

Documentation

Showing up to 5 results
|